Location: Unspecified
(44.0704°N, 88.6889°W)
Time: 05:29:54
(UTC+02:00)

Transit 2A - Pass Details

Date: 26 June 2019
Orbit: 600 x 959 km, 66.7° (Epoch: 13 October)

Event Time Altitude Azimuth Distance (km) Brightness Sun altitude
Rises 08:33:28 0° 243° (WSW) 3,627 - -22.1°
Reaches altitude 10° 08:36:20 10° 254° (WSW) 2,688 - -22.0°
Exits shadow 08:36:28 11° 254° (WSW) 2,645 8.5 -22.0°
Maximum altitude 08:41:54 32° 315° (NW) 1,585 7.9 -21.8°
Drops below altitude 10° 08:47:21 10° 17° (NNE) 2,616 9.9 -21.6°
Sets 08:50:07 0° 27° (NNE) 3,517 10.8 -21.5°
